Weather History for KCYS - March, 2014

Change the Weather History Date:

Friday, March 7, 2014

  Actual Average Record
Temperature  
Mean Temperature 37 °F 34 °F  
Max Temperature 44 °F 45 °F 65 °F (1879)
Min Temperature 30 °F 23 °F -5 °F (1932)
Degree Days  
Heating Degree Days 28 31  
Month to date heating degree days 226 223  
Since 1 July heating degree days 5430 5242  
Cooling Degree Days 0 0  
Month to date cooling degree days 0 0  
Year to date cooling degree days 0 0  
Moisture  
Dew Point 30 °F    
Average Humidity 75    
Maximum Humidity 100    
Minimum Humidity 49    
Precipitation  
Precipitation 0.10 in 0.03 in 0.45 in (1949)
Month to date precipitation 0.26 0.19  
Year to date precipitation 2.42 0.99  
Snow  
Snow 0.90 in 0.30 in 4.60 in (1932)
Month to date snowfall 2.8 2.2  
Since 1 July snowfall 62.9 38.7  
Snow Depth 0.00 in    
Sea Level Pressure  
Sea Level Pressure 29.97 in    
Wind  
Wind Speed 9 mph (North)    
Max Wind Speed 15 mph    
Max Gust Speed 20 mph    
Visibility 5 miles    
Events Fog , Snow    
T = Trace of Precipitation, MM = Missing Value Source: NWS Daily Summary

Daily Weather History Graph

Daily Weather History Graph

Search for Another Location

Airport or City:

Trip Planner

Search our weather history database for the weather conditions in past years. The results will help you decide how hot, cold, wet, or windy it might be!

Date:

Astronomy

Mar. 07, 2014 Rise Set
Actual Time 6:23 AM MST 5:57 PM MST
Civil Twilight 5:56 AM MST 6:24 PM MST
Nautical Twilight 5:24 AM MST 6:56 PM MST
Astronomical Twilight 4:52 AM MST 7:28 PM MST
Moon 10:15 AM MST (3/7) 12:07 AM MST (3/7)
Length of Visible Light 12h 28m
Length of Day
11h 33m
Waxing Crescent, 42% of the Moon is Illuminated
Mar 7
Waxing Crescent
Mar 8
First Quarter
Mar 16
Full
Mar 23
Last Quarter
Mar 30
New

Hourly Weather History & Observations

Time (MST) Temp. Windchill Dew Point Humidity Pressure Visibility Wind Dir Wind Speed Gust Speed Precip Events Conditions
12:53 AM 43.0 °F 36.8 °F 25.0 °F 49% 29.69 in 10.0 mi North 11.5 mph - N/A   Mostly Cloudy
1:53 AM 41.0 °F 33.9 °F 28.9 °F 62% 29.70 in 10.0 mi North 12.7 mph - N/A   Overcast
2:53 AM 39.0 °F 32.8 °F 30.9 °F 73% 29.72 in 10.0 mi North 9.2 mph - N/A   Overcast
3:53 AM 36.0 °F 31.1 °F 30.9 °F 82% 29.73 in 10.0 mi North 5.8 mph - N/A   Partly Cloudy
4:53 AM 34.0 °F 25.5 °F 30.9 °F 89% 29.77 in 10.0 mi North 11.5 mph - N/A   Partly Cloudy
5:53 AM 33.1 °F 26.9 °F 30.9 °F 92% 29.81 in 10.0 mi North 6.9 mph - N/A   Partly Cloudy
6:22 AM 33.1 °F 28.7 °F 30.9 °F 92% 29.87 in 8.0 mi NNE 4.6 mph - N/A   Mostly Cloudy
6:48 AM 33.8 °F 29.6 °F 30.2 °F 87% 29.89 in 7.0 mi NNE 4.6 mph - N/A   Overcast
6:53 AM 33.1 °F 27.7 °F 30.9 °F 92% 29.84 in 7.0 mi NNE 5.8 mph - N/A   Overcast
7:53 AM 34.0 °F 28.0 °F 32.0 °F 92% 29.87 in 9.0 mi North 6.9 mph - N/A   Overcast
8:22 AM 33.1 °F 25.5 °F 32.0 °F 96% 29.92 in 1.0 mi North 9.2 mph - N/A   Overcast
8:27 AM 33.1 °F 25.5 °F 32.0 °F 96% 29.92 in 0.2 mi North 9.2 mph - N/A Fog Fog
8:53 AM 33.1 °F 23.9 °F 33.1 °F 100% 29.91 in 0.5 mi NNE 12.7 mph - N/A Fog Fog
9:02 AM 33.1 °F 24.9 °F 32.0 °F 96% 29.93 in 1.5 mi NNE 10.4 mph - N/A   Overcast
9:44 AM 33.1 °F 24.4 °F 32.0 °F 96% 29.94 in 0.2 mi NNE 11.5 mph - N/A Fog Fog
9:53 AM 33.1 °F 23.9 °F 32.0 °F 96% 29.92 in 0.2 mi NNE 12.7 mph - N/A Fog Fog
10:29 AM 33.1 °F 25.5 °F 33.1 °F 100% 29.95 in 1.2 mi NE 9.2 mph - 0.00 in Snow Light Snow
10:53 AM 33.1 °F 26.9 °F 32.0 °F 96% 29.95 in 0.5 mi NE 6.9 mph - 0.00 in Snow Light Snow
11:38 AM 33.1 °F 26.9 °F 32.0 °F 96% 29.96 in 0.5 mi NNE 6.9 mph - 0.04 in Fog , Snow Light Snow
11:53 AM 32.0 °F 24.8 °F 30.9 °F 96% 29.96 in 0.5 mi NNE 8.1 mph - 0.05 in Fog , Snow Snow
12:08 PM 32.0 °F 22.5 °F 30.9 °F 96% 29.96 in 0.8 mi NE 12.7 mph - 0.00 in Snow Light Snow
12:27 PM 33.1 °F 25.5 °F 30.9 °F 92% 29.96 in 2.0 mi NNE 9.2 mph - 0.00 in Snow Light Snow
12:53 PM 34.0 °F 26.0 °F 30.9 °F 89% 29.94 in 2.0 mi NE 10.4 mph - 0.00 in Snow Light Snow
12:58 PM 34.0 °F 26.6 °F 30.9 °F 89% 29.96 in 1.2 mi NE 9.2 mph - 0.00 in Snow Light Snow
1:18 PM 33.1 °F 24.4 °F 30.9 °F 92% 29.96 in 0.8 mi NNE 11.5 mph - 0.01 in Snow Light Snow
1:27 PM 33.1 °F 24.4 °F 30.9 °F 92% 29.96 in 0.8 mi NNE 11.5 mph - 0.01 in Snow Light Snow
1:39 PM 33.1 °F 24.4 °F 30.9 °F 92% 29.97 in 0.8 mi NNE 11.5 mph - 0.01 in Snow Light Snow
1:47 PM 33.8 °F 24.8 °F 30.2 °F 87% 29.97 in 1.0 mi NE 12.7 mph - 0.01 in Snow Light Snow
1:53 PM 33.1 °F 23.4 °F 30.9 °F 92% 29.97 in 1.0 mi NE 13.8 mph - 0.01 in Snow Light Snow
2:22 PM 33.1 °F 25.5 °F 30.9 °F 92% 29.98 in 0.8 mi NE 9.2 mph - 0.01 in Snow Light Snow
2:46 PM 33.1 °F 26.9 °F 30.9 °F 92% 29.99 in 0.8 mi NE 6.9 mph - 0.01 in Snow Light Snow
2:53 PM 33.1 °F 26.1 °F 30.9 °F 92% 30.00 in 0.8 mi NE 8.1 mph - 0.02 in Snow Light Snow
3:04 PM 33.1 °F 27.7 °F 30.9 °F 92% 29.99 in 0.8 mi NE 5.8 mph - 0.00 in Snow Light Snow
3:26 PM 33.1 °F 24.9 °F 30.9 °F 92% 30.00 in 0.8 mi North 10.4 mph - 0.01 in Snow Light Snow
3:37 PM 33.1 °F 24.9 °F 30.9 °F 92% 30.01 in 0.8 mi North 10.4 mph - 0.01 in Snow Light Snow
3:53 PM 33.1 °F 24.9 °F 30.9 °F 92% 30.04 in 0.8 mi NNE 10.4 mph - 0.01 in Snow Light Snow
4:19 PM 33.1 °F 25.5 °F 30.9 °F 92% 30.02 in 1.2 mi North 9.2 mph - 0.01 in Snow Light Snow
4:43 PM 33.1 °F 26.9 °F 30.9 °F 92% 30.03 in 2.5 mi North 6.9 mph - 0.01 in Snow Light Snow
4:51 PM 33.8 °F 27.7 °F 30.2 °F 87% 30.03 in 7.0 mi NNW 6.9 mph - 0.01 in Snow Light Snow
4:53 PM 33.1 °F 26.1 °F 30.9 °F 92% 30.07 in 8.0 mi North 8.1 mph - 0.01 in   Overcast
5:53 PM 33.1 °F 26.9 °F 30.0 °F 89% 30.10 in 10.0 mi NNW 6.9 mph - N/A   Scattered Clouds
6:12 PM 33.1 °F 28.7 °F 30.0 °F 89% 30.06 in 10.0 mi NW 4.6 mph - N/A   Mostly Cloudy
6:44 PM 33.1 °F 28.7 °F 30.0 °F 89% 30.07 in 10.0 mi NNW 4.6 mph - N/A   Scattered Clouds
6:51 PM 33.8 °F 30.8 °F 30.2 °F 87% 30.07 in 10.0 mi NNW 3.5 mph - N/A   Mostly Cloudy
6:53 PM 33.1 °F 28.7 °F 30.0 °F 89% 30.12 in 10.0 mi NNW 4.6 mph - N/A   Mostly Cloudy
7:50 PM 32.0 °F 25.6 °F 28.4 °F 87% 30.09 in 10.0 mi NW 6.9 mph - N/A   Mostly Cloudy
7:53 PM 32.0 °F 25.6 °F 28.0 °F 85% 30.14 in 10.0 mi NW 6.9 mph - N/A   Scattered Clouds
8:53 PM 30.9 °F 24.3 °F 27.0 °F 85% 30.18 in 10.0 mi NNW 6.9 mph - N/A   Scattered Clouds
9:53 PM 30.9 °F 23.5 °F 27.0 °F 85% 30.20 in 10.0 mi NNW 8.1 mph - N/A   Mostly Cloudy
10:53 PM 30.0 °F 21.7 °F 26.1 °F 85% 30.21 in 10.0 mi NNW 9.2 mph - N/A   Clear
11:53 PM 30.0 °F 21.7 °F 26.1 °F 85% 30.23 in 10.0 mi NNW 9.2 mph - N/A   Clear